Regional Weather Roundup
Issued by NWS

Home | Current Version | Previous Version | Graphics & Text | Print | Product List | Glossary Off
Versions: 1 2 3 4 5 6 7 8 9 10 11 12 13 14 15 16 17 18 19 20 21 22 23 24 25 26 27 28 29 30 31 32 33 34 35 36 37 38 39 40 41 42 43 44 45 46 47 48 49 50

000
ASUS43 KMPX 211210
RWRMN
WEATHER ROUNDUP FOR MINNESOTA
NATIONAL WEATHER SERVICE TWIN CITIES/CHANHASSEN MN
600 AM CST TUE NOV 21 2017


NOTE: "FAIR" INDICATES FEW OR NO CLOUDS BELOW 12,000 FEET WITH NO
SIGNIFICANT WEATHER AND/OR OBSTRUCTIONS TO VISIBILITY. N/A MEANS
CURRENT SKY AND/OR WEATHER CONDITIONS ARE NOT AVAILABLE.

MNZ060>063-068>070-211300-
   Twin Cities Metro

CITY           SKY/WX    TMP DP  RH WIND       PRES   REMARKS
BLAINE         CLOUDY    28  16  59 W20G25    29.76R WCI  15
LAKEVILLE      CLOUDY    27  18  69 W20G28    29.78R WCI  13
SOUTH ST PAUL  CLOUDY    29  14  52 NW16G26   29.77R WCI  17
LAKE ELMO      CLOUDY    28  16  59 NW18G26   29.76R WCI  16
$$
MNZ001>005-007-008-013>017-022>024-027-028-211300-
   Northwest Minnesota

CITY           SKY/WX    TMP DP  RH WIND       PRES   REMARKS
BEMIDJI        FLURRIES  15   9  78 NW22G32   29.84R WCI  -3
HALLOCK        FLURRIES  12   9  85 N25G35    30.03R WCI  -8
ROSEAU         PTCLDY    16   9  73 N22       29.92R WCI  -2
WARROAD        PTCLDY    12   9  85 NW15G23   29.91R WCI  -4
THIEF RVR FALL FLURRIES  12   8  84 NW23      29.95R WCI  -7
CROOKSTON      FLURRIES  12   9  85 N28G37    30.01R WCI  -9
FOSSTON        LGT SNOW  12   9  85 NW15G23   29.93R WCI  -4
DETROIT LAKES  LGT SNOW  16  12  86 NW23G35   29.93R WCI  -2
MOORHEAD       MIX PCPN  18  10  73 N21       30.01R WCI   1
MAHNOMEN       FLURRIES  14   8  79 NW24G31   29.93R WCI  -6
$$
MNZ006-009>011-018-025>026-211300-
   North Central Minnesota

CITY           SKY/WX    TMP DP  RH WIND       PRES   REMARKS
BAUDETTE       LGT SNOW  16   8  71 N24G41    29.82R WCI  -2
FLAG ISLAND    MOCLDY    14   9  79 NW25      29.88R WCI  -5
INTL FALLS     LGT SNOW  17  10  74 NW20G30   29.75R WCI   1
6HR MIN TEMP:  17; 6HR MAX TEMP:  25; 6HR PCP: TRACE;

WASKISH        FLURRIES  18  10  73 NW20G28   29.83R WCI   1
LONGVILLE      FLURRIES  18  10  73 NW12G24   29.79R WCI   5
GRAND RAPIDS   FLURRIES  18  11  74 NW24G31   29.74R WCI   0
CRANE LAKE     LGT SNOW  18  10  73 N8G25     29.69R WCI   7
ORR            LGT SNOW  18  12  79 NW14G21   29.66R WCI   4
COOK           LGT SNOW  18  12  79 NW16G23   29.67R WCI   3
WALKER         FLURRIES  15   9  76 NW20G29   29.81R WCI  -2
$$
MNZ012-019>021-037-211300-
   Northeast Minnesota

CITY           SKY/WX    TMP DP  RH WIND       PRES   REMARKS
DULUTH         FLURRIES  20  11  68 NW22G41   29.62R WCI   3
6HR MIN TEMP:  20; 6HR MAX TEMP:  35; 6HR PCP: TRACE;

ELY            LGT SNOW  19  14  79 NW21G30   29.57R WCI   3
EVELETH        FLURRIES  18  10  73 NW20G29   29.65R WCI   1
DULUTH HARBOR  CLOUDY    27  14  59 W25G32    29.69R WCI  11
TWO HARBORS    CLOUDY    25  14  63 W12G26    29.59R WCI  14
SILVER BAY     CLOUDY    23  12  63 W8        29.55R WCI  14
GRAND MARAIS     N/A     28  18  66 W10G20    29.51R WCI  19
G MARAIS ARPRT LGT SNOW  19  10  68 W17G29    29.42R WCI   4
$$
MNZ029>031-032-039>041-046>048-054>057-064-211300-
   West Central Minnesota

CITY           SKY/WX    TMP DP  RH WIND       PRES   REMARKS
FERGUS FALLS   FLURRIES  18  10  73 N28G35    29.98R WCI  -1
WHEATON        FLURRIES  19  10  68 NW17G25   30.03R WCI   4
MORRIS         CLOUDY    19  10  68 NW35G41   29.94R WCI  -1
ELBOW LAKE     CLOUDY    18  10  71 NW23G33   29.95R HAZE    WCI   1
GLENWOOD       CLOUDY    19  12  73 NW28G33   29.88R WCI   1
APPLETON       CLOUDY    21  10  63 NW26G36   29.96R WCI   4
BENSON         LGT SNOW  21  14  73 N29       29.94R WCI   3
ORTONVILLE     CLOUDY    19   9  63 MISG      29.99R
MADISON        CLOUDY    25  12  58 NW28G39   30.00R WCI   8
WILLMAR        CLOUDY    25  16  68 NW26G32   29.90R WCI   9
$$
MNZ033>034-036-042>043-049>051-058-059-211300-
   Central Minnesota

CITY           SKY/WX    TMP DP  RH WIND       PRES   REMARKS
SAUK CENTRE    CLOUDY    21  11  65 NW31G38   29.86R WCI   2
PAYNESVILLE    CLOUDY    23  15  71 NW21G37   29.86R WCI   8
AITKIN         LGT SNOW  18   9  68 NW15G29   29.75R WCI   3
PINE RIVER     FLURRIES  16   9  73 NW16G30   29.84R WCI   0
STAPLES        CLOUDY    16   7  67 NW24G35   29.84R WCI  -3
LONG PRAIRIE   FLURRIES  19  10  68 W30G38    29.82R WCI   0
LITTLE FALLS   FLURRIES  21   3  45 NW20G28   29.83R WCI   6
LITCHFIELD     MIX PCPN  25  16  68 NW21G36   29.85R WCI  10
BUFFALO        FLURRIES  26  18  71 W16G24    29.82R WCI  13
MAPLE LAKE     FLURRIES  27  20  77 W16G26    29.82R WCI  14
HUTCHINSON     FLURRIES  25  16  67 W20G32    29.86R WCI  11
$$
MNZ037-044-045-052-053-211300-
   East Central Minnesota

CITY           SKY/WX    TMP DP  RH WIND       PRES   REMARKS
PRINCETON      CLOUDY    25  12  58 W20G33    29.78R WCI  11
MORA           CLOUDY    25  12  58 NW18G28   29.76R WCI  11
CAMBRIDGE      CLOUDY    27  12  54 W17G29    29.77R WCI  14
RUSH CITY      CLOUDY    25  11  56 NW13G26   29.75R WCI  14
MOOSE LAKE     CLOUDY    21  10  63 NW17G25   29.70R WCI   7
HINCKLEY       CLOUDY    27  14  59 NW14G21   29.72R WCI  15
CLOQUET        FLURRIES  19   9  63 NW21G35   29.66R WCI   3
MCGREGOR       CLOUDY    21  10  63 NW24      29.74R WCI   4
$$
MNZ071>073-080-081-089-090-097-098-211300-
   Southwest Minnesota

CITY           SKY/WX    TMP DP  RH WIND       PRES   REMARKS
MONTEVIDEO     CLOUDY    21  10  63 N21G29    29.95R WCI   6
GRANITE FALLS  CLOUDY    24  13  64 W29G37    29.96R WCI   6
CANBY          CLOUDY    22  11  62 W30G38    30.01R WCI   4
MARSHALL       CLOUDY    20  10  65 NW25G33   29.96R WCI   2
OLIVIA         CLOUDY    23  14  68 NW23G36   29.89R WCI   7
PIPESTONE      PTCLDY    18   7  62 N26G38    29.97R WCI  -1
WINDOM           N/A     21   7  53 NW25G31   29.91R WCI   4
WORTHINGTON    CLOUDY    25  13  60 NW25G33   29.93R WCI   9
JACKSON        CLOUDY    28  14  54 NW25G43   29.89R WCI  14
SLAYTON        MOCLDY    19  10  66 NW22G37   29.96R WCI   3
$$
MNZ065>067-074>077-082>085-091>093-211300-
   South Central Minnesota

CITY           SKY/WX    TMP DP  RH WIND       PRES   REMARKS
MANKATO        CLOUDY    24  14  65 NW30G38   29.85R WCI   7
NEW ULM        CLOUDY    21  10  63 NW28G38   29.89R WCI   3
ST JAMES       MOCLDY    25  12  58 W22G36    29.90R WCI  10
FAIRMONT       MOCLDY    27  16  63 NW28G41   29.88R WCI  11
GLENCOE        CLOUDY    27  16  64 NW23G32   29.84R WCI  12
FARIBAULT      MOCLDY    27  18  69 W17G24    29.81R WCI  14
OWATONNA       MOCLDY    27  16  63 W23G41    29.80R WCI  12
WASECA         CLOUDY    27  16  63 NW28G33   29.84R WCI  11
ALBERT LEA     PTCLDY    28  16  59 NW17G28   29.81R WCI  16
$$
MNZ078>079-086>088-094>096-211300-
   Southeast Minnesota

CITY           SKY/WX    TMP DP  RH WIND       PRES   REMARKS
ROCHESTER      PTCLDY    26  16  65 NW32G44   29.74R WCI   9
6HR MIN TEMP:  26; 6HR MAX TEMP:  37;

RED WING       CLOUDY    28  10  47 NW21G29   29.76R WCI  15
STANTON        CLOUDY    30  17  58 NW20G29   29.78R WCI  17
DODGE CENTER   CLOUDY    27  16  63 NW17G24   29.77R WCI  14
WINONA         CLEAR     34  19  55 NW17G35   29.72R WCI  23
AUSTIN         PTCLDY    28  16  59 NW24      29.79R WCI  14
PRESTON        MOCLDY    28  15  56 NW35G49   29.73R WCI  12
$$
ABBREVIATIONS USED IN REMARKS
   TC - TEMPERATURES IN CELSIUS
  WCI - WIND CHILL INDEX
   HX - HEAT INDEX
  VSB - VISIBILITY
$$



USA.gov is the U.S. government's official web portal to all federal, state and local government web resources and services.